Location: ???????
(55.4362°N, 38.1183°E)
Time: 02:05:07
(UTC+00:00)

Cosmos 1825 Rocket - Pass Details

Date: 17 June 2021
Orbit: 603 x 632 km, 82.5° (Epoch: 26 July)

Event Time Altitude Azimuth Distance (km) Brightness Sun altitude
Exits shadow 22:35:12 13° 198° (SSW) 1,792 5.2 -9.9°
Maximum altitude 22:39:07 74° 283° (WNW) 661 3.7 -9.7°
Drops below altitude 10° 22:43:36 10° 9° (N) 2,018 7.8 -9.6°
Sets 22:45:51 0° 12° (NNE) 2,926 9.3 -9.5°
